Volver al catálogo

STARLINK-31069

ActivoComunicacionesVLEO
NORAD 58607·PAYLOAD·🇺🇸 United States

Lanzado Dec 19, 2023 desde Cape Canaveral Space Force Station

Loading…

Próximos Pases (próximas 24 horas)

TLE

ActualizadoSource: CelesTrak SupGP

Época: Sep 14, 2026, 22:41 UTC

1 58607C 23200U   26257.94562500 -.00046285  00000+0 -16763-2 0  2574
2 58607  42.9999 180.0458 0001466 266.0991 139.1761 15.27604670    13

Sigue STARLINK-31069 en tiempo real con AllMySat

Download on the App Store